When you browse on this site, cookies collect data to enhance your experience and personalize the content and advertising you see.
Visit our Privacy Policy to learn more. By continuing to use the site, you agree to this use of cookies and data.
  • en Suisse
  • Liste des pays
  • À 7 jours
  • Température de l'eau
  • Carte météo
  • Widgets météo
  • user-avatar
    Se connecter

    Météo par heure à Porto-Novo

    Ce jour, 16 Octobre, Mercredi

    Heure Température Précipitation Vent Pression Humidité
    00:00 +27°C° 0 mm 2 m/s 758 mmHg 89%
    01:00 +27°C° 0.2 mm 2 m/s 758 mmHg 89%
    02:00 +27°C° 0.2 mm 2 m/s 757 mmHg 90%
    03:00 +26°C° 0.2 mm 2 m/s 757 mmHg 90%
    04:00 +26°C° 0 mm 2 m/s 757 mmHg 90%
    05:00 +26°C° 0 mm 1 m/s 758 mmHg 90%
    06:00 +27°C° 0 mm 1 m/s 758 mmHg 90%
    07:00 +28°C° 0 mm 1 m/s 758 mmHg 83%
    08:00 +30°C° 0 mm 1 m/s 759 mmHg 75%
    09:00 +32°C° 0 mm 2 m/s 759 mmHg 67%
    10:00 +32°C° 0 mm 2 m/s 758 mmHg 65%
    11:00 +33°C° 0 mm 3 m/s 758 mmHg 64%
    12:00 +34°C° 0 mm 3 m/s 757 mmHg 62%
    13:00 +33°C° 0.2 mm 3 m/s 757 mmHg 64%
    14:00 +33°C° 0.2 mm 4 m/s 756 mmHg 65%
    15:00 +33°C° 0.2 mm 4 m/s 755 mmHg 67%
    16:00 +32°C° 0 mm 4 m/s 756 mmHg 72%
    17:00 +29°C° 0 mm 4 m/s 756 mmHg 78%
    18:00 +28°C° 0 mm 4 m/s 756 mmHg 84%
    19:00 +28°C° 0 mm 4 m/s 757 mmHg 85%
    20:00 +28°C° 0 mm 3 m/s 758 mmHg 86%
    21:00 +27°C° 0 mm 3 m/s 758 mmHg 87%
    22:00 +27°C° 0 mm 3 m/s 758 mmHg 88%
    23:00 +27°C° 0 mm 3 m/s 758 mmHg 89%

    Demain, 17 Octobre, Jeudi

    Heure Température Précipitation Vent Pression Humidité
    00:00 +27°C° 0 mm 3 m/s 757 mmHg 90%
    01:00 +27°C° 0 mm 3 m/s 757 mmHg 91%
    02:00 +27°C° 0 mm 3 m/s 757 mmHg 91%
    03:00 +26°C° 0 mm 3 m/s 756 mmHg 92%
    04:00 +26°C° 0 mm 2 m/s 757 mmHg 92%
    05:00 +26°C° 0 mm 2 m/s 757 mmHg 91%
    06:00 +26°C° 0 mm 2 m/s 757 mmHg 91%
    07:00 +28°C° 0 mm 2 m/s 758 mmHg 84%
    08:00 +30°C° 0 mm 3 m/s 758 mmHg 76%
    09:00 +31°C° 0 mm 3 m/s 758 mmHg 69%
    10:00 +33°C° 0 mm 4 m/s 758 mmHg 67%
    11:00 +33°C° 0 mm 4 m/s 757 mmHg 66%
    12:00 +34°C° 0 mm 4 m/s 757 mmHg 64%
    13:00 +33°C° 0.6 mm 4 m/s 756 mmHg 66%
    14:00 +33°C° 0.6 mm 4 m/s 755 mmHg 68%
    15:00 +32°C° 0.6 mm 4 m/s 755 mmHg 69%
    16:00 +30°C° 0.1 mm 4 m/s 755 mmHg 74%
    17:00 +29°C° 0.1 mm 4 m/s 755 mmHg 79%
    18:00 +28°C° 0.1 mm 3 m/s 756 mmHg 84%
    19:00 +28°C° 0.8 mm 3 m/s 756 mmHg 85%
    20:00 +28°C° 0.8 mm 3 m/s 757 mmHg 87%
    21:00 +27°C° 0.8 mm 3 m/s 758 mmHg 89%
    22:00 +27°C° 0.2 mm 3 m/s 757 mmHg 89%
    23:00 +27°C° 0.2 mm 3 m/s 757 mmHg 88%

    Après-demain, 18 Octobre, Vendredi

    Heure Température Précipitation Vent Pression Humidité
    00:00 +27°C° 0.2 mm 3 m/s 757 mmHg 88%
    01:00 +27°C° 0 mm 3 m/s 757 mmHg 88%
    02:00 +27°C° 0 mm 3 m/s 756 mmHg 88%
    03:00 +27°C° 0 mm 3 m/s 756 mmHg 88%
    04:00 +27°C° 0 mm 3 m/s 756 mmHg 89%
    05:00 +27°C° 0 mm 3 m/s 757 mmHg 89%
    06:00 +27°C° 0 mm 3 m/s 757 mmHg 90%
    07:00 +28°C° 1.3 mm 3 m/s 757 mmHg 86%
    08:00 +29°C° 1.3 mm 3 m/s 757 mmHg 82%
    09:00 +29°C° 1.3 mm 2 m/s 758 mmHg 79%
    10:00 +29°C° 0 mm 2 m/s 757 mmHg 77%
    11:00 +29°C° 0 mm 2 m/s 756 mmHg 76%
    12:00 +29°C° 0 mm 2 m/s 755 mmHg 75%
    13:00 +29°C° 0 mm 2 m/s 755 mmHg 76%
    14:00 +29°C° 0 mm 3 m/s 755 mmHg 78%
    15:00 +29°C° 0 mm 4 m/s 754 mmHg 80%
    16:00 +28°C° 0 mm 3 m/s 755 mmHg 82%
    17:00 +28°C° 0 mm 3 m/s 755 mmHg 83%
    18:00 +28°C° 0 mm 2 m/s 755 mmHg 85%
    19:00 +28°C° 0 mm 3 m/s 756 mmHg 86%
    20:00 +27°C° 0 mm 3 m/s 756 mmHg 88%
    21:00 +27°C° 0 mm 4 m/s 757 mmHg 89%
    22:00 +27°C° 0 mm 4 m/s 757 mmHg 89%
    23:00 +27°C° 0 mm 4 m/s 757 mmHg 89%

    19 Octobre, Samedi

    Heure Température Précipitation Vent Pression Humidité
    00:00 +27°C° 0 mm 4 m/s 757 mmHg 90%
    01:00 +27°C° 0 mm 4 m/s 756 mmHg 90%
    02:00 +27°C° 0 mm 4 m/s 756 mmHg 90%
    03:00 +27°C° 0 mm 4 m/s 756 mmHg 91%
    04:00 +27°C° 0 mm 4 m/s 756 mmHg 91%
    05:00 +27°C° 0 mm 4 m/s 756 mmHg 91%
    06:00 +27°C° 0 mm 3 m/s 756 mmHg 91%
    07:00 +28°C° 0 mm 3 m/s 757 mmHg 83%
    08:00 +30°C° 0 mm 3 m/s 757 mmHg 76%
    09:00 +31°C° 0 mm 3 m/s 757 mmHg 68%
    10:00 +33°C° 0 mm 4 m/s 757 mmHg 66%
    11:00 +33°C° 0 mm 4 m/s 756 mmHg 65%
    12:00 +33°C° 0 mm 4 m/s 756 mmHg 63%
    13:00 +33°C° 0.6 mm 4 m/s 755 mmHg 67%
    14:00 +32°C° 0.6 mm 4 m/s 755 mmHg 70%
    15:00 +30°C° 0.6 mm 4 m/s 755 mmHg 74%
    16:00 +29°C° 2.2 mm 4 m/s 755 mmHg 78%
    17:00 +28°C° 2.2 mm 4 m/s 756 mmHg 82%
    18:00 +27°C° 2.2 mm 4 m/s 756 mmHg 87%
    19:00 +27°C° 0 mm 4 m/s 757 mmHg 87%
    20:00 +27°C° 0 mm 4 m/s 757 mmHg 88%
    21:00 +27°C° 0 mm 4 m/s 758 mmHg 89%
    22:00 +27°C° 0.2 mm 3 m/s 757 mmHg 89%
    23:00 +27°C° 0.2 mm 3 m/s 757 mmHg 89%

    20 Octobre, Dimanche

    Heure Température Précipitation Vent Pression Humidité
    00:00 +27°C° 0.2 mm 3 m/s 757 mmHg 89%
    01:00 +27°C° 0.4 mm 3 m/s 757 mmHg 89%
    02:00 +27°C° 0.4 mm 3 m/s 756 mmHg 89%
    03:00 +27°C° 0.4 mm 3 m/s 756 mmHg 89%
    04:00 +26°C° 0.6 mm 2 m/s 757 mmHg 90%
    05:00 +26°C° 0.6 mm 2 m/s 757 mmHg 90%
    06:00 +26°C° 0.6 mm 2 m/s 757 mmHg 91%
    07:00 +27°C° 2.1 mm 2 m/s 758 mmHg 89%
    08:00 +27°C° 2.1 mm 1 m/s 758 mmHg 88%
    09:00 +26°C° 2.1 mm 0 m/s 758 mmHg 86%
    10:00 +27°C° 0.8 mm 1 m/s 758 mmHg 87%
    11:00 +27°C° 0.8 mm 1 m/s 757 mmHg 88%
    12:00 +27°C° 0.8 mm 1 m/s 757 mmHg 89%
    13:00 +27°C° 0 mm 1 m/s 756 mmHg 89%
    14:00 +27°C° 0 mm 1 m/s 756 mmHg 89%
    15:00 +27°C° 0 mm 1 m/s 756 mmHg 88%
    16:00 +27°C° 0 mm 2 m/s 756 mmHg 89%
    17:00 +26°C° 0 mm 2 m/s 756 mmHg 89%
    18:00 +26°C° 0 mm 2 m/s 756 mmHg 89%
    19:00 +26°C° 0 mm 2 m/s 757 mmHg 89%
    20:00 +26°C° 0 mm 1 m/s 757 mmHg 90%
    21:00 +26°C° 0 mm 1 m/s 758 mmHg 90%
    22:00 +26°C° 0 mm 1 m/s 758 mmHg 90%
    23:00 +26°C° 0 mm 2 m/s 757 mmHg 91%

    21 Octobre, Lundi

    Heure Température Précipitation Vent Pression Humidité
    00:00 +26°C° 0 mm 2 m/s 757 mmHg 91%
    01:00 +26°C° 0.1 mm 2 m/s 757 mmHg 91%
    02:00 +26°C° 0.1 mm 2 m/s 757 mmHg 91%
    03:00 +26°C° 0.1 mm 2 m/s 757 mmHg 91%
    04:00 +26°C° 0.3 mm 1 m/s 757 mmHg 92%
    05:00 +26°C° 0.3 mm 1 m/s 757 mmHg 92%
    06:00 +26°C° 0.3 mm 1 m/s 757 mmHg 92%
    07:00 +27°C° 0.3 mm 1 m/s 758 mmHg 86%
    08:00 +29°C° 0.3 mm 1 m/s 758 mmHg 80%
    09:00 +30°C° 0.3 mm 1 m/s 759 mmHg 74%
    10:00 +31°C° 0.4 mm 1 m/s 758 mmHg 71%
    11:00 +31°C° 0.4 mm 2 m/s 757 mmHg 68%
    12:00 +32°C° 0.4 mm 2 m/s 757 mmHg 65%
    13:00 +33°C° 0.4 mm 3 m/s 756 mmHg 66%
    14:00 +31°C° 0.4 mm 3 m/s 755 mmHg 67%
    15:00 +32°C° 0.4 mm 4 m/s 755 mmHg 67%
    16:00 +30°C° 0 mm 3 m/s 755 mmHg 72%
    17:00 +29°C° 0 mm 3 m/s 755 mmHg 77%
    18:00 +28°C° 0 mm 3 m/s 755 mmHg 82%
    19:00 +27°C° 0 mm 3 m/s 756 mmHg 83%
    20:00 +27°C° 0 mm 2 m/s 757 mmHg 85%
    21:00 +27°C° 0 mm 2 m/s 757 mmHg 87%
    22:00 +27°C° 0 mm 2 m/s 757 mmHg 88%
    23:00 +27°C° 0 mm 2 m/s 757 mmHg 89%
    Voir plus